Location: Wingville
(42.9917°N, 90.4915°W)
Time: 18:59:30
(UTC+00:00)

YUBILEINY - Pass Details

Date: 04 July 2022
Orbit: 1478 x 1509 km, 82.5° (Epoch: 08 August)

Event Time Altitude Azimuth Distance (km) Brightness Sun altitude
Rises 09:11:00 0° 355° (N) 4,649 ? -11.7°
Reaches altitude 10° 09:14:07 10° 1° (N) 3,661 ? -11.3°
Maximum altitude 09:22:30 46° 73° (ENE) 1,928 ? -10.2°
Drops below altitude 10° 09:30:46 10° 145° (SE) 3,621 ? -9.1°
Sets 09:33:48 0° 151° (SSE) 4,594 ? -8.7°
